Terminal Aerodrome Forecast
Issued by NWS Lake Charles, LA

Home | Current Version | Previous Version | Text Only | Print | Product List | Glossary On
Versions: 1 2 3 4 5 6 7 8 9 10 11 12 13 14
778
FTUS44 KLCH 220216 AAA
TAFLFT
TAF AMD
KLFT 220216Z 2202/2224 VRB05KT P6SM OVC015
     FM220500 VRB05KT P6SM BKN025
     FM221400 18006KT P6SM VCTS OVC025CB=

USA.gov is the U.S. government's official web portal to all federal, state and local government web resources and services.